Weather History for KMZZ - December, 2012

Change the Weather History Date:

Friday, December 7, 2012

  Actual Average (KMIE) Record (KMIE)
Temperature  
Mean Temperature 43 °F 33 °F  
Max Temperature 92 °F 41 °F 63 °F (1963)
Min Temperature 40 °F 26 °F -1 °F (1977)
Degree Days  
Heating Degree Days 22 32  
Month to date heating degree days 214  
Since 1 July heating degree days 1349  
Cooling Degree Days 0 0  
Month to date cooling degree days 0  
Year to date cooling degree days 956  
Moisture  
Dew Point 42 °F    
Average Humidity 92    
Maximum Humidity 97    
Minimum Humidity 79    
Precipitation  
Precipitation 0.17 in 0.10 in 0.90 in (1969)
Month to date precipitation 0.70  
Year to date precipitation 37.94  
Sea Level Pressure  
Sea Level Pressure 29.91 in    
Wind  
Wind Speed 5 mph (SE)    
Max Wind Speed 9 mph    
Max Gust Speed -    
Visibility 5 miles    
Events Rain    
T = Trace of Precipitation, MM = Missing Value Source: NWS Daily Summary

Daily Weather History Graph

Daily Weather History Graph

Search for Another Location

Airport or City:

Trip Planner

Search our weather history database for the weather conditions in past years. The results will help you decide how hot, cold, wet, or windy it might be!

Date:

Astronomy

Dec. 07, 2012 Rise Set
Actual Time 7:52 AM EST 5:15 PM EST
Civil Twilight 7:22 AM EST 5:46 PM EST
Nautical Twilight 6:48 AM EST 6:20 PM EST
Astronomical Twilight 6:15 AM EST 6:53 PM EST
Moon 1:10 AM EST (12/7) 1:13 PM EST (12/7)
Length of Visible Light 10h 24m
Length of Day
9h 22m
Last Quarter, 39% of the Moon is Illuminated
Dec 7
Last Quarter
Dec 13
New
Dec 20
First Quarter
Dec 28
Full
Jan 4
Last Quarter

Hourly Weather History & Observations

Time (EST) Temp. Windchill Dew Point Humidity Pressure Visibility Wind Dir Wind Speed Gust Speed Precip Events Conditions
12:15 AM 41.7 °F 38.0 °F 36.0 °F 80% 29.96 in 10.0 mi South 5.8 mph - N/A   Scattered Clouds
12:35 AM 42.1 °F 37.7 °F 36.0 °F 79% 29.95 in 10.0 mi South 6.9 mph - N/A   Scattered Clouds
1:15 AM 41.5 °F 38.6 °F 36.0 °F 81% 29.95 in 10.0 mi SSW 4.6 mph - N/A   Scattered Clouds
1:35 AM 41.4 °F 38.4 °F 36.1 °F 82% 29.96 in 10.0 mi SSW 4.6 mph - N/A   Scattered Clouds
1:55 AM 41.0 °F 38.0 °F 36.1 °F 83% 29.95 in 10.0 mi SSW 4.6 mph - N/A   Scattered Clouds
2:15 AM 40.6 °F 36.0 °F 36.3 °F 85% 29.96 in 10.0 mi SSW 6.9 mph - N/A   Mostly Cloudy
2:35 AM 41.2 °F 37.3 °F 36.9 °F 85% 29.96 in 10.0 mi SW 5.8 mph - N/A   Mostly Cloudy
3:15 AM 41.9 °F 39.0 °F 37.0 °F 83% 29.96 in 10.0 mi SSW 4.6 mph - N/A   Overcast
3:35 AM 41.9 °F - 37.0 °F 83% 29.95 in 10.0 mi Calm Calm - N/A   Overcast
3:55 AM 41.4 °F 39.4 °F 36.9 °F 84% 29.94 in 10.0 mi South 3.5 mph - N/A   Overcast
4:15 AM 41.0 °F 37.1 °F 37.0 °F 86% 29.94 in 10.0 mi South 5.8 mph - N/A   Overcast
4:35 AM 41.2 °F - 37.4 °F 86% 29.95 in 10.0 mi Calm Calm - N/A   Overcast
4:55 AM 41.0 °F 38.0 °F 37.4 °F 87% 29.94 in 10.0 mi South 4.6 mph - N/A   Overcast
5:15 AM 41.0 °F - 37.6 °F 88% 29.94 in 10.0 mi Calm Calm - N/A   Overcast
5:35 AM 41.0 °F - 37.6 °F 88% 29.94 in 10.0 mi Calm Calm - N/A   Overcast
6:15 AM 41.2 °F 39.2 °F 38.1 °F 89% 29.95 in 10.0 mi SW 3.5 mph - N/A   Overcast
6:35 AM 41.4 °F 37.6 °F 37.9 °F 88% 29.96 in 10.0 mi SW 5.8 mph - N/A   Overcast
6:55 AM 41.9 °F 39.0 °F 38.3 °F 87% 29.96 in 7.0 mi West 4.6 mph - N/A   Overcast
7:15 AM 41.5 °F - 38.3 °F 88% 29.96 in 7.0 mi Calm Calm - N/A   Light Drizzle
7:35 AM 41.7 °F - 38.7 °F 89% 29.96 in 7.0 mi Calm Calm - N/A Rain Light Rain
7:55 AM 41.5 °F - 38.7 °F 89% 29.96 in 7.0 mi Calm Calm - N/A Rain Light Rain
8:15 AM 41.4 °F - 39.0 °F 91% 29.96 in 7.0 mi Calm Calm - 0.01 in Rain Light Rain
8:35 AM 41.2 °F 39.2 °F 39.4 °F 93% 29.97 in 3.0 mi SW 3.5 mph - 0.01 in Rain Light Rain
9:15 AM 41.7 °F - 40.3 °F 95% 29.97 in 2.5 mi Calm Calm - 0.01 in Rain Light Rain
9:35 AM 41.9 °F - 40.5 °F 95% 29.97 in 2.0 mi Calm Calm - 0.01 in   Overcast
9:55 AM 41.9 °F 40.0 °F 40.6 °F 95% 29.96 in 2.0 mi ESE 3.5 mph - 0.01 in   Overcast
10:15 AM 42.3 °F - 41.2 °F 96% 29.96 in 2.5 mi Calm Calm - N/A   Overcast
10:35 AM 42.8 °F 41.1 °F 41.7 °F 96% 29.96 in 2.5 mi East 3.5 mph - N/A   Overcast
10:55 AM 43.0 °F 37.7 °F 41.9 °F 96% 29.98 in 2.0 mi South 9.2 mph - N/A   Overcast
11:15 AM 43.3 °F 38.6 °F 42.4 °F 97% 29.98 in 3.0 mi South 8.1 mph - N/A   Overcast
11:35 AM 44.4 °F 40.0 °F 43.0 °F 95% 29.97 in 5.0 mi South 8.1 mph - N/A   Overcast
11:55 AM 45.3 °F 41.6 °F 43.0 °F 92% 29.96 in 5.0 mi South 6.9 mph - N/A   Overcast
12:15 PM 45.5 °F 41.8 °F 43.0 °F 91% 29.94 in 4.0 mi SSE 6.9 mph - N/A   Overcast
12:35 PM 45.5 °F 41.8 °F 43.3 °F 92% 29.92 in 2.5 mi SSE 6.9 mph - 0.01 in Rain Light Rain
12:55 PM 45.5 °F 41.3 °F 43.7 °F 93% 29.91 in 3.0 mi SSE 8.1 mph - 0.02 in Rain Light Rain
1:15 PM 45.9 °F 41.7 °F 44.2 °F 94% 29.91 in 3.0 mi SSE 8.1 mph - 0.01 in Rain Light Rain
1:35 PM 46.0 °F 41.9 °F 44.6 °F 95% 29.91 in 3.0 mi South 8.1 mph - 0.01 in   Overcast
1:55 PM 46.2 °F 42.2 °F 44.6 °F 94% 29.90 in 2.5 mi South 8.1 mph - 0.02 in   Overcast
2:15 PM 46.4 °F 42.9 °F 45.0 °F 95% 29.90 in 2.5 mi South 6.9 mph - N/A   Overcast
2:35 PM 46.6 °F - 45.1 °F 95% 29.89 in 3.0 mi SSE 5.8 mph - N/A   Overcast
2:55 PM 46.8 °F - 45.5 °F 95% 29.87 in 4.0 mi Calm Calm - 0.01 in   Overcast
3:15 PM 46.9 °F - 45.5 °F 95% 29.87 in 4.0 mi Calm Calm - N/A   Overcast
3:35 PM 46.8 °F - 45.5 °F 95% 29.88 in 4.0 mi Calm Calm - N/A   Overcast
4:15 PM 46.8 °F - 45.5 °F 95% 29.88 in 2.0 mi Calm Calm - N/A Rain Light Rain
4:35 PM 46.8 °F - 45.5 °F 95% 29.87 in 3.0 mi SE 4.6 mph - 0.01 in   Overcast
4:55 PM 46.6 °F - 45.3 °F 95% 29.86 in 4.0 mi ESE 5.8 mph - 0.01 in   Overcast
5:15 PM 46.4 °F 43.5 °F 45.1 °F 95% 29.86 in 3.0 mi SE 5.8 mph - N/A   Overcast
5:35 PM 46.0 °F 43.9 °F 44.8 °F 95% 29.85 in 4.0 mi East 4.6 mph - N/A   Overcast
5:55 PM 45.7 °F - 44.2 °F 95% 29.88 in 4.0 mi Calm Calm - 0.02 in Rain Light Rain
6:15 PM 45.5 °F 42.5 °F 44.2 °F 95% 29.86 in 5.0 mi ENE 5.8 mph - 0.01 in Rain Light Rain
6:35 PM 45.5 °F 41.8 °F 44.4 °F 96% 29.86 in 5.0 mi East 6.9 mph - 0.01 in   Overcast
7:15 PM 45.5 °F 41.8 °F 44.6 °F 97% 29.86 in 3.0 mi NNE 6.9 mph - 0.02 in Rain Light Rain
7:35 PM 45.5 °F 41.3 °F 44.4 °F 96% 29.85 in 4.0 mi NE 8.1 mph - 0.03 in Rain Light Rain
7:55 PM 45.3 °F 41.6 °F 44.2 °F 96% 29.86 in 3.0 mi NE 6.9 mph - 0.03 in   Overcast
8:15 PM 45.1 °F 40.3 °F 44.1 °F 96% 29.84 in 4.0 mi NE 9.2 mph - 0.01 in Rain Light Rain
8:35 PM 45.1 °F 41.4 °F 44.2 °F 97% 29.85 in 3.0 mi NE 6.9 mph - 0.02 in   Overcast
9:15 PM 45.1 °F 40.8 °F 44.2 °F 97% 29.84 in 2.5 mi ENE 8.1 mph - 0.01 in Rain Light Rain
9:35 PM 45.1 °F 41.4 °F 44.2 °F 97% 29.84 in 2.5 mi ENE 6.9 mph - 0.01 in Rain Light Rain
9:55 PM 45.1 °F 41.4 °F 44.2 °F 97% 29.83 in 2.5 mi ENE 6.9 mph - 0.01 in   Overcast
10:15 PM 45.0 °F 41.8 °F 44.1 °F 97% 29.84 in 2.5 mi ENE 5.8 mph - N/A   Overcast
10:35 PM 45.1 °F 42.8 °F 44.2 °F 97% 29.83 in 2.5 mi East 4.6 mph - N/A   Overcast
10:55 PM 45.1 °F 42.8 °F 44.2 °F 97% 29.83 in 2.5 mi East 4.6 mph - N/A   Overcast
11:15 PM 45.1 °F 42.8 °F 44.2 °F 97% 29.83 in 2.5 mi East 4.6 mph - N/A Rain Light Rain
11:35 PM 45.1 °F 43.7 °F 44.2 °F 97% 29.83 in 1.8 mi East 3.5 mph - N/A   Overcast
11:55 PM 45.1 °F - 44.2 °F 97% 29.83 in 1.8 mi Calm Calm - N/A   Overcast